TimeCDT,TemperatureF,Dew PointF,Humidity,Sea Level PressureIn,VisibilityMPH,Wind Direction,Wind SpeedMPH,Gust SpeedMPH,PrecipitationIn,Events,Conditions,WindDirDegrees,DateUTC
12:15 AM,46.4,44.6,93,29.79,10.0,West,5.8,-,N/A,,Clear,270,2013-05-28 05:15:00
12:35 AM,48.2,42.8,82,29.81,10.0,West,3.5,-,N/A,,Clear,280,2013-05-28 05:35:00
12:55 AM,46.4,41.0,81,29.80,10.0,SSW,3.5,-,N/A,,Clear,200,2013-05-28 05:55:00
1:15 AM,44.6,41.0,87,29.81,10.0,NW,3.5,-,N/A,,Clear,320,2013-05-28 06:15:00
1:55 AM,44.6,41.0,87,29.81,10.0,WSW,8.1,-,N/A,,Clear,250,2013-05-28 06:55:00
2:15 AM,44.6,39.2,81,29.80,10.0,WSW,6.9,-,N/A,,Clear,250,2013-05-28 07:15:00
2:35 AM,42.8,39.2,87,29.80,10.0,WSW,5.8,-,N/A,,Clear,250,2013-05-28 07:35:00
2:55 AM,42.8,39.2,87,29.80,10.0,SW,4.6,-,N/A,,Clear,220,2013-05-28 07:55:00
3:15 AM,44.6,39.2,81,29.81,10.0,Calm,Calm,-,N/A,,Clear,0,2013-05-28 08:15:00
3:35 AM,42.8,39.2,87,29.80,10.0,Calm,Calm,-,N/A,,Clear,0,2013-05-28 08:35:00
3:55 AM,41.0,39.2,93,29.81,10.0,Calm,Calm,-,N/A,,Clear,0,2013-05-28 08:55:00
4:15 AM,42.8,39.2,87,29.81,10.0,WSW,6.9,-,N/A,,Clear,250,2013-05-28 09:15:00
4:35 AM,42.8,39.2,87,29.81,10.0,SSW,3.5,-,N/A,,Clear,200,2013-05-28 09:35:00
4:55 AM,42.8,39.2,87,29.80,10.0,Calm,Calm,-,N/A,,Clear,0,2013-05-28 09:55:00
5:15 AM,41.0,37.4,87,29.81,10.0,West,4.6,-,N/A,,Clear,260,2013-05-28 10:15:00
5:35 AM,41.0,37.4,87,29.81,10.0,WSW,4.6,-,N/A,,Clear,250,2013-05-28 10:35:00
5:55 AM,44.6,37.4,76,29.80,10.0,Calm,Calm,-,N/A,,Clear,0,2013-05-28 10:55:00
6:15 AM,44.6,37.4,76,29.80,10.0,Calm,Calm,-,N/A,,Clear,0,2013-05-28 11:15:00
6:35 AM,44.6,39.2,81,29.79,10.0,Calm,Calm,-,N/A,,Clear,0,2013-05-28 11:35:00
6:55 AM,46.4,39.2,76,29.79,10.0,Calm,Calm,-,N/A,,Clear,0,2013-05-28 11:55:00
7:15 AM,48.2,41.0,76,29.79,10.0,Calm,Calm,-,N/A,,Clear,0,2013-05-28 12:15:00
7:35 AM,51.8,44.6,76,29.79,10.0,West,4.6,-,N/A,,Clear,280,2013-05-28 12:35:00
7:55 AM,53.6,44.6,72,29.79,10.0,West,5.8,-,N/A,,Clear,280,2013-05-28 12:55:00
8:15 AM,55.4,42.8,63,29.78,10.0,WNW,5.8,-,N/A,,Clear,290,2013-05-28 13:15:00
8:35 AM,55.4,42.8,63,29.78,10.0,West,5.8,-,N/A,,Clear,260,2013-05-28 13:35:00
8:55 AM,57.2,44.6,63,29.77,10.0,West,4.6,-,N/A,,Clear,270,2013-05-28 13:55:00
9:15 AM,59.0,44.6,59,29.76,10.0,WNW,4.6,-,N/A,,Clear,290,2013-05-28 14:15:00
9:35 AM,62.6,42.8,48,29.76,10.0,WNW,4.6,-,N/A,,Clear,300,2013-05-28 14:35:00
9:55 AM,64.4,42.8,45,29.76,10.0,NW,4.6,-,N/A,,Clear,310,2013-05-28 14:55:00
10:15 AM,64.4,42.8,45,29.75,10.0,East,4.6,-,N/A,,Clear,90,2013-05-28 15:15:00
10:35 AM,66.2,41.0,40,29.75,10.0,NE,3.5,-,N/A,,Clear,50,2013-05-28 15:35:00
10:55 AM,64.4,44.6,49,29.75,10.0,NE,4.6,-,N/A,,Clear,50,2013-05-28 15:55:00
11:15 AM,64.4,46.4,52,29.75,10.0,ENE,8.1,-,N/A,,Clear,60,2013-05-28 16:15:00
11:35 AM,66.2,44.6,46,29.75,10.0,East,5.8,-,N/A,,Clear,80,2013-05-28 16:35:00
11:55 AM,66.2,44.6,46,29.75,10.0,East,5.8,-,N/A,,Clear,100,2013-05-28 16:55:00
12:15 PM,66.2,42.8,43,29.75,10.0,East,8.1,-,N/A,,Clear,80,2013-05-28 17:15:00
12:35 PM,66.2,48.2,52,29.75,10.0,East,9.2,-,N/A,,Clear,90,2013-05-28 17:35:00
12:55 PM,66.2,46.4,49,29.75,10.0,East,5.8,-,N/A,,Clear,100,2013-05-28 17:55:00
1:15 PM,66.2,48.2,52,29.75,10.0,East,10.4,-,N/A,,Clear,90,2013-05-28 18:15:00
1:35 PM,66.2,48.2,52,29.75,10.0,East,9.2,-,N/A,,Clear,90,2013-05-28 18:35:00
1:55 PM,66.2,48.2,52,29.75,10.0,East,9.2,-,N/A,,Clear,80,2013-05-28 18:55:00
2:15 PM,66.2,48.2,52,29.75,10.0,ENE,11.5,-,N/A,,Clear,70,2013-05-28 19:15:00
2:35 PM,66.2,48.2,52,29.75,10.0,East,10.4,19.6,N/A,,Clear,100,2013-05-28 19:35:00
2:55 PM,66.2,48.2,52,29.74,10.0,East,11.5,-,N/A,,Clear,100,2013-05-28 19:55:00
3:15 PM,66.2,48.2,52,29.74,10.0,East,12.7,-,N/A,,Clear,100,2013-05-28 20:15:00
3:35 PM,68.0,48.2,49,29.74,10.0,East,10.4,-,N/A,,Clear,100,2013-05-28 20:35:00
3:55 PM,66.2,46.4,49,29.74,10.0,East,12.7,-,N/A,,Clear,80,2013-05-28 20:55:00
4:15 PM,64.4,44.6,49,29.74,10.0,ENE,13.8,-,N/A,,Clear,70,2013-05-28 21:15:00
4:35 PM,66.2,48.2,52,29.72,10.0,ENE,12.7,-,N/A,Rain,Light Rain,70,2013-05-28 21:35:00
4:55 PM,68.0,48.2,49,29.71,10.0,East,13.8,-,N/A,,Clear,80,2013-05-28 21:55:00
5:15 PM,66.2,46.4,49,29.72,10.0,ESE,10.4,-,N/A,,Clear,110,2013-05-28 22:15:00
5:35 PM,68.0,46.4,46,29.71,10.0,East,13.8,-,N/A,,Partly Cloudy,100,2013-05-28 22:35:00
5:55 PM,68.0,46.4,46,29.70,10.0,East,16.1,-,N/A,,Clear,100,2013-05-28 22:55:00
6:15 PM,68.0,46.4,46,29.70,10.0,ESE,15.0,-,N/A,,Clear,110,2013-05-28 23:15:00
6:35 PM,66.2,46.4,49,29.69,10.0,East,15.0,-,N/A,,Clear,100,2013-05-28 23:35:00
6:55 PM,64.4,46.4,52,29.69,10.0,East,15.0,23.0,N/A,,Clear,90,2013-05-28 23:55:00
7:15 PM,64.4,46.4,52,29.69,10.0,East,11.5,-,N/A,,Clear,90,2013-05-29 00:15:00
7:35 PM,62.6,48.2,59,29.70,10.0,East,11.5,-,N/A,,Clear,100,2013-05-29 00:35:00
7:55 PM,62.6,46.4,55,29.70,10.0,ESE,11.5,-,N/A,,Scattered Clouds,110,2013-05-29 00:55:00
8:15 PM,62.6,46.4,55,29.70,10.0,ESE,13.8,-,N/A,,Partly Cloudy,120,2013-05-29 01:15:00
8:35 PM,62.6,48.2,59,29.69,10.0,ESE,10.4,17.3,N/A,Thunderstorm,Clear,120,2013-05-29 01:35:00
8:55 PM,59.0,50.0,72,29.69,10.0,ESE,12.7,18.4,N/A,,Partly Cloudy,110,2013-05-29 01:55:00
9:15 PM,57.2,50.0,77,29.68,10.0,ESE,10.4,-,N/A,,Clear,110,2013-05-29 02:15:00
9:35 PM,55.4,50.0,82,29.68,10.0,ESE,8.1,-,N/A,,Clear,120,2013-05-29 02:35:00
9:55 PM,53.6,50.0,88,29.71,10.0,ESE,5.8,-,N/A,,Clear,110,2013-05-29 02:55:00
10:15 PM,51.8,50.0,94,29.73,10.0,ESE,8.1,-,N/A,,Clear,120,2013-05-29 03:15:00
10:35 PM,53.6,50.0,88,29.73,10.0,ESE,5.8,-,N/A,,Clear,120,2013-05-29 03:35:00
10:55 PM,53.6,50.0,88,29.72,10.0,ESE,10.4,-,N/A,,Partly Cloudy,120,2013-05-29 03:55:00
11:15 PM,57.2,50.0,77,29.72,10.0,East,8.1,-,N/A,,Mostly Cloudy,90,2013-05-29 04:15:00
11:35 PM,57.2,50.0,77,29.73,10.0,North,4.6,-,N/A,Thunderstorm,Thunderstorm,350,2013-05-29 04:35:00
11:55 PM,57.2,50.0,77,29.74,10.0,West,17.3,21.9,N/A,Rain,Light Rain,280,2013-05-29 04:55:00